TimeEST,TemperatureF,Dew PointF,Humidity,Sea Level PressureIn,VisibilityMPH,Wind Direction,Wind SpeedMPH,Gust SpeedMPH,PrecipitationIn,Events,Conditions,WindDirDegrees,DateUTC
12:53 AM,26.1,21.9,84,30.18,10.0,Calm,Calm,-,N/A,,Clear,0,2012-12-15 05:53:00
1:53 AM,24.1,21.0,88,30.19,9.0,Calm,Calm,-,N/A,,Clear,0,2012-12-15 06:53:00
2:53 AM,27.0,23.0,85,30.21,9.0,Calm,Calm,-,N/A,,Clear,0,2012-12-15 07:53:00
3:53 AM,25.0,21.9,88,30.22,9.0,Calm,Calm,-,N/A,,Mostly Cloudy,0,2012-12-15 08:53:00
4:53 AM,26.1,23.0,88,30.23,9.0,WNW,3.5,-,N/A,,Mostly Cloudy,300,2012-12-15 09:53:00
5:53 AM,23.0,19.9,88,30.25,8.0,NW,5.8,-,N/A,,Clear,320,2012-12-15 10:53:00
6:53 AM,30.9,25.0,79,30.26,10.0,NW,5.8,-,N/A,,Clear,320,2012-12-15 11:53:00
7:53 AM,30.9,25.0,79,30.29,10.0,Calm,Calm,-,N/A,,Clear,0,2012-12-15 12:53:00
8:53 AM,37.0,24.1,59,30.31,10.0,North,6.9,-,N/A,,Clear,350,2012-12-15 13:53:00
9:53 AM,39.0,21.0,49,30.32,10.0,North,10.4,-,N/A,,Clear,10,2012-12-15 14:53:00
10:53 AM,39.9,19.9,45,30.31,10.0,Variable,5.8,-,N/A,,Clear,0,2012-12-15 15:53:00
11:53 AM,42.1,17.1,37,30.30,10.0,NE,4.6,-,N/A,,Clear,50,2012-12-15 16:53:00
12:53 PM,42.1,17.1,37,30.28,10.0,WNW,4.6,-,N/A,,Clear,300,2012-12-15 17:53:00
1:53 PM,42.1,17.1,37,30.27,10.0,ENE,4.6,-,N/A,,Clear,60,2012-12-15 18:53:00
2:53 PM,39.9,21.9,49,30.28,10.0,ESE,6.9,-,N/A,,Clear,120,2012-12-15 19:53:00
3:53 PM,37.0,21.9,54,30.29,10.0,East,4.6,-,N/A,,Clear,80,2012-12-15 20:53:00
4:53 PM,33.1,19.9,59,30.30,10.0,Calm,Calm,-,N/A,,Clear,0,2012-12-15 21:53:00
5:53 PM,30.0,21.0,69,30.31,10.0,Calm,Calm,-,N/A,,Clear,0,2012-12-15 22:53:00
6:53 PM,27.0,21.0,78,30.31,10.0,Calm,Calm,-,N/A,,Clear,0,2012-12-15 23:53:00
7:53 PM,24.1,19.9,84,30.32,10.0,Calm,Calm,-,N/A,,Clear,0,2012-12-16 00:53:00
8:53 PM,24.1,21.0,88,30.34,10.0,Calm,Calm,-,N/A,,Clear,0,2012-12-16 01:53:00
9:53 PM,23.0,19.9,88,30.33,10.0,Calm,Calm,-,N/A,,Clear,0,2012-12-16 02:53:00
10:53 PM,24.1,21.0,88,30.33,10.0,Calm,Calm,-,N/A,,Clear,0,2012-12-16 03:53:00
11:53 PM,27.0,21.9,81,30.33,10.0,Calm,Calm,-,N/A,,Clear,0,2012-12-16 04:53:00